Location: ???????
(55.3754°N, 39.3545°E)
Time: 05:38:16
(UTC+00:00)

RESURS DK-1 - Pass Details

Date: 14 April 2026
Orbit: 524 x 530 km, 69.9° (Epoch: 10 May)

Event Time Altitude Azimuth Distance (km) Brightness Sun altitude
Exits shadow 18:42:35 34° 111° (ESE) 878 2.9 -16.9°
Drops below altitude 10° 18:46:04 10° 49° (NE) 1,779 4.9 -17.3°
Sets 18:48:22 0° 41° (NE) 2,674 5.9 -17.5°
